Location: Newark
(38.6492°N, 88.9193°W)
Time: 02:21:57
(UTC+00:00)

N. Korean satellite - Visible Passes

Search period start: 23 November 2019 00:00
Search period end: 03 December 2019 00:00
Orbit: 456 x 506 km, 97.2° (Epoch: 22 November)

Date Brightness Start Highest point End Pass type
(mag) Time Alt. Az. Time Alt. Az. Time Alt. Az.
23 Nov 10.0 10:47:58 10° ENE 10:49:47 13° E 10:51:35 10° ESE visible
24 Nov 6.5 11:54:19 10° N 11:57:59 76° WNW 12:01:34 10° SSW visible
25 Nov 9.9 00:02:53 10° SW 00:05:04 15° W 00:07:17 10° NW visible
25 Nov 7.7 11:29:02 10° NNE 11:32:35 46° E 11:36:02 10° S visible
25 Nov 8.8 23:36:15 10° SSW 23:39:31 31° W 23:42:51 10° NNW visible
26 Nov 9.3 11:04:12 10° NE 11:07:04 21° E 11:09:53 10° SSE visible
26 Nov 7.0 23:10:25 10° S 23:14:04 70° W 23:17:47 10° NNW visible
27 Nov 10.3 10:41:01 10° E 10:41:28 10° E 10:41:54 10° E visible
27 Nov 6.9 12:11:37 10° N 12:15:05 42° WNW 12:18:28 10° SW visible
28 Nov 6.6 11:46:05 10° NNE 11:49:44 83° E 11:53:17 10° S visible
28 Nov 9.7 23:54:05 10° SW 23:56:46 19° W 23:59:28 10° NW visible
29 Nov 8.3 11:20:55 10° NNE 11:24:17 35° E 11:27:34 10° SSE visible
29 Nov 8.2 23:27:45 10° SSW 23:31:14 39° W 23:34:45 10° NNW visible
30 Nov 9.7 10:56:19 10° NE 10:58:43 17° E 11:01:06 10° SE visible
30 Nov 6.7 23:02:06 10° SSE 23:05:47 90° SSE 23:09:32 10° NNW visible
01 Dec 6.6 12:03:16 10° N 12:06:49 54° WNW 12:10:16 10° SSW visible
02 Dec 10.2 00:12:40 10° WSW 00:14:01 12° W 00:15:21 10° WNW visible
02 Dec 7.0 11:37:50 10° NNE 11:41:25 63° E 11:44:54 10° S visible
02 Dec 9.3 23:45:23 10° SSW 23:48:25 24° W 23:51:28 10° NW visible
